Location: Gudip?du
(17.0263°N, 80.8301°E)
Time: 14:48:00
(UTC+00:00)

Cosmos 1420 Rocket - Pass Details

Date: 03 August 2024
Orbit: 753 x 777 km, 74.0° (Epoch: 11 September)

Event Time Altitude Azimuth Distance (km) Brightness Sun altitude
Rises 14:18:24 0° 181° (S) 3,244 7.0 -16.4°
Reaches altitude 10° 14:20:50 10° 176° (S) 2,317 6.2 -17.0°
Maximum altitude 14:25:55 50° 102° (ESE) 975 4.1 -18.1°
Drops below altitude 10° 14:30:59 10° 27° (NNE) 2,310 6.5 -19.2°
Sets 14:33:24 0° 22° (NNE) 3,234 7.3 -19.7°
